COSMOS 1156

Satellite information

Favourite Embed

Satellite Type and Status

PAYLOADIN ORBIT

Key statistics

Satellite COSMOS 1156 at a glance.

Uptime

16526

Days in orbit

Revolutions

≈ 12.6

Per day

Orbit

LEO

Low Earth Orbit

Inclination

74.0

Latest

Satellite identification and parameters

Extended collection of information and parameters for COSMOS 1156.

Object identification

Identified? True

Debris? False

Object name: COSMOS 1156

International designator: 1980-012A

Object number (NORAD): 11691

Object ID (CCSDS): 11691

Country: COMMONWEALTH OF INDEPENDENT STATES (CIS)

Current information (Y/N): Y

RCS size: MEDIUM

Orbital parameters

Period: 114.568 minutes

Inclination: 74.0215 deg

SMA: 7813.94 km

Apoapsis: 1473.767 km

Periapsis: 1397.844 km

RAAN: 212.1092 deg

Eccentricy: 0.0048582

Argument of periapsis: 166.1046 deg

Mean anomaly: 6.9818 deg

Mean motion: 12.56890999 rev/day

Mean motion (dot): -0.00000003 rev/day2

B* drag term: 0.000076677 1/REarth

Two-line elements (TLE)

Creation date: May 11, 2025, 2:40 a.m.

Reference frame: TEME

Reference center: EARTH

Epoch: May 10, 2025, 11:15 p.m. UTC

TLE line 0: 0 COSMOS 1156

TLE line 1: 1 11691U 80012A 25130.96931537 -.00000003 00000-0 76677-4 0 9994

TLE line 2: 2 11691 74.0215 212.1092 0048582 166.1046 6.9818 12.56890999 75841

Live tracking on map

Real-time ground track for satellite COSMOS 1156.

In-orbit conjunctions

A list of the most updated potential collisions computed for object COSMOS 1156.

Target Orbit TCA Probability of collision Miss distance Type
SL-14 DEB LEO 2024-12-01 19:37:49 0.0001323874 997.0 (m) DEBRIS
COSMOS 2014 LEO 2024-11-18 00:16:32 0.001530035 97.0 (m) PAYLOAD

Associated space launch

Military communications satellites

COSMOS 1156 was lifted into orbit during the mission ‘Kosmos-3M | Strela-1M 185-192’, on board a Kosmos-3M space rocket.

The launch took place on Feb. 11, 1980, 11:32 p.m. from 132/2.

For more information about the launch, click the button.

Launch to space Kosmos-3M | Strela-1M 185-192
Kosmos-3M | Strela-1M 185-192

Agency: N/A

Status: Launch Successful

Launch date: Feb. 11, 1980, 11:32 p.m. UTC

Rocket: Kosmos-3M

Launch pad: 132/2

Location: Plesetsk Cosmodrome, Russian Federation

...

Latest news about this satellite

There are no fresh news available about this satellite. Check back as we update our databases every day.


Newsletter sign-up

Weekly statistics, charts and insights to help you stay on top of the space industry.